�������l�o���
Date,Time,MP-1(��Sv/h),MP-2(��Sv/h),MP-3(��Sv/h),MP-4(��Sv/h),MP-5(��Sv/h),MP-6(��Sv/h),MP-7(��Sv/h),MP-8(��Sv/h),����,����(m/s),���J
2022/05/26,00:00,0.582,0.851,0.549,1.022,0.731,0.346,0.596,0.563,��,6.9,��
2022/05/26,00:10,0.582,0.851,0.550,1.023,0.731,0.347,0.598,0.563,��,7.4,��
2022/05/26,00:20,0.584,0.852,0.550,1.022,0.732,0.346,0.596,0.562,��,7.6,��
2022/05/26,00:30,0.581,0.852,0.550,1.023,0.732,0.347,0.597,0.562,��,7.2,��
2022/05/26,00:40,0.582,0.851,0.550,1.019,0.730,0.346,0.595,0.562,��,7.1,��
2022/05/26,00:50,0.581,0.853,0.549,1.021,0.732,0.347,0.596,0.563,��,6.6,��
2022/05/26,01:00,0.583,0.852,0.549,1.022,0.731,0.346,0.597,0.563,��,7.2,��
2022/05/26,01:10,0.582,0.852,0.550,1.024,0.730,0.346,0.597,0.562,��,6.6,��
2022/05/26,01:20,0.582,0.851,0.549,1.025,0.732,0.346,0.597,0.563,��,6.9,��
2022/05/26,01:30,0.581,0.852,0.549,1.024,0.733,0.346,0.596,0.564,��,7.4,��
2022/05/26,01:40,0.582,0.850,0.548,1.022,0.731,0.347,0.598,0.563,��,7.8,��
2022/05/26,01:50,0.582,0.851,0.551,1.023,0.730,0.348,0.598,0.563,��,6.9,��
2022/05/26,02:00,0.581,0.849,0.550,1.025,0.732,0.346,0.598,0.562,��,6.5,��
2022/05/26,02:10,0.581,0.852,0.550,1.023,0.731,0.346,0.598,0.562,��,7.3,��
2022/05/26,02:20,0.581,0.852,0.550,1.021,0.732,0.347,0.597,0.564,��,6.1,��
2022/05/26,02:30,0.582,0.852,0.548,1.024,0.732,0.346,0.595,0.563,��,5.2,��
2022/05/26,02:40,0.582,0.851,0.549,1.024,0.732,0.347,0.598,0.562,��쐼,4.5,��
2022/05/26,02:50,0.581,0.851,0.548,1.026,0.731,0.347,0.597,0.564,��,6.6,��
2022/05/26,03:00,0.583,0.850,0.549,1.022,0.731,0.347,0.597,0.562,��,5.2,��
2022/05/26,03:10,0.582,0.850,0.547,1.024,0.732,0.348,0.597,0.561,��쓌,5.5,��
2022/05/26,03:20,0.583,0.851,0.548,1.024,0.732,0.347,0.596,0.562,��,6.2,��
2022/05/26,03:30,0.582,0.850,0.548,1.023,0.732,0.347,0.596,0.562,��,5.4,��
2022/05/26,03:40,0.580,0.851,0.550,1.022,0.731,0.346,0.597,0.562,��,5.7,��
2022/05/26,03:50,0.580,0.851,0.549,1.023,0.732,0.347,0.598,0.561,��,5.5,��
2022/05/26,04:00,0.581,0.851,0.549,1.022,0.733,0.346,0.598,0.562,��,5.7,��
2022/05/26,04:10,0.580,0.850,0.549,1.022,0.731,0.346,0.598,0.561,��,6.3,��
2022/05/26,04:20,0.583,0.851,0.549,1.025,0.731,0.347,0.597,0.563,��,5.7,��
2022/05/26,04:30,0.583,0.849,0.549,1.021,0.729,0.347,0.596,0.562,��,5.8,��
2022/05/26,04:40,0.583,0.850,0.550,1.025,0.731,0.347,0.599,0.562,��쐼,5.5,��
2022/05/26,04:50,0.581,0.848,0.548,1.023,0.732,0.347,0.596,0.562,��쐼,5.2,��
2022/05/26,05:00,0.581,0.850,0.548,1.023,0.733,0.345,0.596,0.565,��쐼,4.8,��
2022/05/26,05:10,0.580,0.851,0.550,1.025,0.731,0.345,0.600,0.562,��쐼,5.1,��
2022/05/26,05:20,0.582,0.848,0.548,1.023,0.732,0.347,0.597,0.561,��쐼,5.0,��
2022/05/26,05:30,0.582,0.850,0.549,1.021,0.732,0.347,0.598,0.563,��,4.2,��
2022/05/26,05:40,0.582,0.850,0.549,1.023,0.730,0.347,0.597,0.560,��,3.6,��
2022/05/26,05:50,0.582,0.851,0.549,1.024,0.732,0.347,0.599,0.562,��,3.3,��
2022/05/26,06:00,0.583,0.850,0.550,1.023,0.732,0.345,0.598,0.561,��,3.5,��
2022/05/26,06:10,0.582,0.850,0.549,1.026,0.733,0.347,0.597,0.562,��,3.5,��
2022/05/26,06:20,0.582,0.850,0.548,1.024,0.731,0.348,0.598,0.563,��쓌,3.0,��
2022/05/26,06:30,0.581,0.851,0.548,1.024,0.732,0.347,0.598,0.563,��쓌,4.6,��
2022/05/26,06:40,0.581,0.850,0.546,1.024,0.732,0.347,0.599,0.563,��쓌,5.9,��
2022/05/26,06:50,0.582,0.848,0.549,1.022,0.730,0.345,0.598,0.562,��쓌,6.9,��
2022/05/26,07:00,0.581,0.850,0.548,1.023,0.730,0.344,0.598,0.562,��쓌,7.5,��
2022/05/26,07:10,0.581,0.847,0.550,1.023,0.731,0.346,0.598,0.562,��,6.4,��
2022/05/26,07:20,0.580,0.849,0.548,1.025,0.730,0.345,0.596,0.565,��,7.6,��
2022/05/26,07:30,0.579,0.847,0.549,1.024,0.731,0.345,0.597,0.562,��,6.8,��
2022/05/26,07:40,0.579,0.847,0.549,1.024,0.732,0.345,0.597,0.560,��,7.5,��
2022/05/26,07:50,0.579,0.850,0.549,1.023,0.731,0.346,0.597,0.562,��,7.5,��
2022/05/26,08:00,0.580,0.850,0.548,1.024,0.730,0.345,0.596,0.561,��쓌,8.4,��
2022/05/26,08:10,0.579,0.847,0.545,1.024,0.732,0.346,0.597,0.559,��쓌,8.9,��
2022/05/26,08:20,0.582,0.850,0.545,1.024,0.729,0.344,0.596,0.561,��,9.7,��
2022/05/26,08:30,0.580,0.849,0.545,1.025,0.731,0.345,0.596,0.560,��,9.6,��
2022/05/26,08:40,0.580,0.848,0.546,1.025,0.730,0.345,0.597,0.561,��쓌,10.5,��
2022/05/26,08:50,0.580,0.846,0.543,1.024,0.729,0.345,0.597,0.561,��쓌,10.6,��
2022/05/26,09:00,0.581,0.846,0.545,1.026,0.728,0.346,0.595,0.561,��쓌,10.4,��
2022/05/26,09:10,0.582,0.847,0.545,1.025,0.732,0.346,0.597,0.560,��쓌,10.2,��
2022/05/26,09:20,0.580,0.847,0.544,1.028,0.731,0.345,0.597,0.560,��쓌,11.7,��
2022/05/26,09:30,0.581,0.847,0.552,1.028,0.731,0.345,0.597,0.561,��쓌,11.7,��
2022/05/26,09:40,0.582,0.848,0.544,1.025,0.732,0.344,0.598,0.560,��쓌,11.6,��
2022/05/26,09:50,0.583,0.847,0.545,1.027,0.732,0.344,0.597,0.558,��쓌,10.4,��
2022/05/26,10:00,0.583,0.848,0.543,1.023,0.732,0.345,0.597,0.560,��쓌,11.6,��
2022/05/26,10:10,0.582,0.847,0.546,1.026,0.732,0.345,0.597,0.560,��쓌,12.5,��
2022/05/26,10:20,0.584,0.845,0.545,1.025,0.734,0.346,0.595,0.561,��쓌,12.5,��
2022/05/26,10:30,0.582,0.847,0.546,1.026,0.733,0.345,0.597,0.561,��쓌,13.0,��
2022/05/26,10:40,0.582,0.846,0.546,1.027,0.733,0.347,0.596,0.561,��쓌,13.8,��
2022/05/26,10:50,0.581,0.848,0.547,1.028,0.734,0.345,0.597,0.562,��쓌,13.5,��
2022/05/26,11:00,0.584,0.848,0.546,1.028,0.733,0.345,0.597,0.561,��쓌,14.1,��
2022/05/26,11:10,0.584,0.847,0.545,1.025,0.735,0.346,0.598,0.561,��쓌,12.5,��
2022/05/26,11:20,0.583,0.851,0.547,1.024,0.734,0.346,0.595,0.560,��쓌,13.8,��
2022/05/26,11:30,0.582,0.854,0.548,1.023,0.736,0.347,0.595,0.561,��쓌,14.4,��
2022/05/26,11:40,0.583,0.852,0.548,1.023,0.735,0.346,0.596,0.563,��쓌,12.1,��
2022/05/26,11:50,0.584,0.851,0.547,1.024,0.735,0.345,0.596,0.562,��쓌,12.7,��
2022/05/26,12:00,0.583,0.853,0.548,1.024,0.734,0.347,0.597,0.560,��쓌,13.0,��
2022/05/26,12:10,0.583,0.852,0.547,1.023,0.734,0.348,0.596,0.561,��쓌,11.3,��
2022/05/26,12:20,0.583,0.853,0.549,1.025,0.736,0.346,0.596,0.561,��쓌,14.9,��
2022/05/26,12:30,0.584,0.855,0.546,1.024,0.734,0.347,0.597,0.562,��쓌,13.8,��
2022/05/26,12:40,0.584,0.853,0.548,1.025,0.735,0.347,0.596,0.562,��쓌,14.7,��
2022/05/26,12:50,0.583,0.852,0.553,1.024,0.735,0.347,0.597,0.562,��,12.4,��
2022/05/26,13:00,0.586,0.855,0.556,1.026,0.737,0.348,0.596,0.563,��,11.9,��
2022/05/26,13:10,0.586,0.852,0.551,1.026,0.735,0.346,0.597,0.562,��쓌,15.2,��
2022/05/26,13:20,0.584,0.852,0.550,1.025,0.735,0.345,0.596,0.562,��쓌,14.7,��
2022/05/26,13:30,0.584,0.853,0.553,1.025,0.735,0.346,0.597,0.562,��쓌,15.0,��
2022/05/26,13:40,0.584,0.852,0.552,1.025,0.735,0.347,0.597,0.562,��쓌,14.1,��
2022/05/26,13:50,0.584,0.853,0.551,1.025,0.736,0.347,0.597,0.563,��쓌,14.9,��
2022/05/26,14:00,0.584,0.855,0.556,1.026,0.738,0.347,0.597,0.561,��,12.4,��
2022/05/26,14:10,0.584,0.855,0.556,1.028,0.738,0.347,0.595,0.561,��,14.1,��
2022/05/26,14:20,0.584,0.853,0.557,1.027,0.737,0.346,0.596,0.562,��쓌,13.3,��
2022/05/26,14:30,0.585,0.855,0.558,1.025,0.737,0.347,0.597,0.562,��쓌,13.0,��
2022/05/26,14:40,0.583,0.852,0.558,1.026,0.735,0.347,0.597,0.564,��쓌,14.6,��
2022/05/26,14:50,0.586,0.851,0.556,1.028,0.737,0.345,0.596,0.563,��쓌,13.5,��
2022/05/26,15:00,0.583,0.852,0.556,1.026,0.736,0.348,0.597,0.563,��,12.4,��
2022/05/26,15:10,0.585,0.854,0.556,1.027,0.737,0.347,0.596,0.561,��,12.7,��
2022/05/26,15:20,0.585,0.853,0.557,1.026,0.736,0.346,0.597,0.563,��쓌,11.8,��
2022/05/26,15:30,0.582,0.855,0.556,1.028,0.738,0.347,0.596,0.563,��쓌,12.2,��
2022/05/26,15:40,0.583,0.854,0.555,1.025,0.737,0.347,0.597,0.563,��쓌,12.5,��
2022/05/26,15:50,0.584,0.855,0.557,1.027,0.737,0.347,0.597,0.564,��쓌,12.4,��
2022/05/26,16:00,0.585,0.853,0.556,1.027,0.736,0.347,0.597,0.561,��쓌,11.9,��
2022/05/26,16:10,0.585,0.856,0.555,1.025,0.740,0.346,0.595,0.563,��쓌,12.0,��
2022/05/26,16:20,0.585,0.856,0.557,1.026,0.738,0.348,0.597,0.563,��,10.2,��
2022/05/26,16:30,0.584,0.854,0.556,1.028,0.738,0.347,0.596,0.562,��,10.6,��
2022/05/26,16:40,0.583,0.853,0.558,1.028,0.739,0.347,0.597,0.561,��,12.1,��
2022/05/26,16:50,0.586,0.854,0.558,1.026,0.737,0.348,0.595,0.562,��,11.3,��
2022/05/26,17:00,0.585,0.856,0.558,1.026,0.738,0.347,0.598,0.562,��,11.1,��
2022/05/26,17:10,0.585,0.856,0.556,1.028,0.736,0.345,0.595,0.562,��,11.3,��
2022/05/26,17:20,0.585,0.854,0.556,1.030,0.737,0.347,0.597,0.562,��,11.6,��
2022/05/26,17:30,0.584,0.853,0.557,1.028,0.739,0.347,0.595,0.562,��,9.9,��
2022/05/26,17:40,0.586,0.855,0.557,1.031,0.737,0.347,0.596,0.563,��,11.6,��
2022/05/26,17:50,0.587,0.854,0.555,1.032,0.737,0.346,0.596,0.563,��,11.0,��
2022/05/26,18:00,0.583,0.855,0.555,1.031,0.736,0.346,0.597,0.563,��,10.0,��
2022/05/26,18:10,0.587,0.855,0.556,1.030,0.738,0.345,0.596,0.563,��,12.4,��
2022/05/26,18:20,0.584,0.856,0.556,1.029,0.736,0.348,0.596,0.564,��,12.7,��
2022/05/26,18:30,0.584,0.855,0.556,1.030,0.738,0.345,0.597,0.564,��,12.1,��
2022/05/26,18:40,0.583,0.855,0.555,1.030,0.736,0.346,0.597,0.564,��,10.0,��
2022/05/26,18:50,0.584,0.854,0.556,1.033,0.737,0.345,0.598,0.565,��,11.7,��
2022/05/26,19:00,0.584,0.856,0.557,1.031,0.737,0.345,0.598,0.563,��,11.8,��
2022/05/26,19:10,0.583,0.854,0.557,1.032,0.739,0.345,0.598,0.563,��,9.4,��
2022/05/26,19:20,0.584,0.855,0.556,1.031,0.737,0.347,0.598,0.564,��,9.7,��
2022/05/26,19:30,0.583,0.856,0.556,1.032,0.736,0.346,0.598,0.562,��,9.0,��
2022/05/26,19:40,0.583,0.856,0.557,1.032,0.739,0.346,0.598,0.564,��,7.9,��
2022/05/26,19:50,0.584,0.855,0.558,1.034,0.736,0.346,0.600,0.565,��,9.4,��
2022/05/26,20:00,0.584,0.857,0.558,1.032,0.738,0.347,0.598,0.565,��,7.3,��
2022/05/26,20:10,0.585,0.855,0.558,1.031,0.739,0.347,0.599,0.565,��,8.3,��
2022/05/26,20:20,0.587,0.859,0.558,1.031,0.739,0.347,0.598,0.565,��,9.6,��
2022/05/26,20:30,0.584,0.859,0.559,1.032,0.737,0.347,0.600,0.564,��,9.3,��
2022/05/26,20:40,0.588,0.858,0.559,1.032,0.738,0.347,0.598,0.563,��,9.0,��
2022/05/26,20:50,0.586,0.858,0.558,1.032,0.738,0.346,0.599,0.564,��,9.8,��
2022/05/26,21:00,0.587,0.859,0.558,1.031,0.740,0.348,0.598,0.565,��,9.8,��
2022/05/26,21:10,0.586,0.860,0.558,1.031,0.742,0.347,0.600,0.565,��,9.1,��
2022/05/26,21:20,0.588,0.858,0.560,1.030,0.738,0.347,0.598,0.565,��,8.0,��
2022/05/26,21:30,0.589,0.858,0.560,1.031,0.739,0.347,0.597,0.565,��,7.2,��
2022/05/26,21:40,0.589,0.858,0.558,1.033,0.740,0.347,0.598,0.566,��,6.5,��
2022/05/26,21:50,0.586,0.855,0.559,1.033,0.739,0.347,0.598,0.565,��,6.4,��
2022/05/26,22:00,0.585,0.860,0.559,1.031,0.740,0.347,0.600,0.565,��,6.6,��
2022/05/26,22:10,0.585,0.858,0.559,1.031,0.740,0.346,0.596,0.564,��,7.4,��
2022/05/26,22:20,0.595,0.859,0.558,1.034,0.741,0.347,0.599,0.565,��,8.9,��
2022/05/26,22:30,0.583,0.858,0.559,1.033,0.739,0.348,0.598,0.565,��,6.7,��
2022/05/26,22:40,0.586,0.856,0.560,1.032,0.738,0.346,0.598,0.564,��,5.9,��
2022/05/26,22:50,0.584,0.856,0.558,1.033,0.739,0.346,0.600,0.565,��,7.5,��
2022/05/26,23:00,0.585,0.855,0.558,1.030,0.737,0.348,0.599,0.564,��,8.3,��
2022/05/26,23:10,0.584,0.854,0.557,1.031,0.737,0.347,0.601,0.564,��,9.4,��
2022/05/26,23:20,0.586,0.856,0.558,1.032,0.737,0.346,0.598,0.565,��,9.4,��
2022/05/26,23:30,0.584,0.855,0.557,1.030,0.737,0.348,0.600,0.563,��,9.8,��
2022/05/26,23:40,0.585,0.857,0.558,1.031,0.736,0.347,0.598,0.565,��,9.3,��
2022/05/26,23:50,0.584,0.856,0.557,1.031,0.738,0.346,0.601,0.566,��,10.4,��
